EW4115 Weather Reports


Display with metric or nautical units.
time (UTC)temp
F
wind
direction
speed
MPH
gust
MPH
rain 1hr
in
rain 24hr
in
rain mn
in
humidity
%
barometer
mb
20260510163031 73 237 1.0 3.0 0.00 0.00 0.00 58 1013.2
20260510161534 74 237 1.0 3.0 0.00 0.00 0.00 56 1013.4
20260510160035 74 237 1.0 4.0 0.00 0.00 0.00 55 1013.6
20260510154528 74 246 0.0 6.0 0.00 0.00 0.00 56 1013.9
20260510153034 75 216 1.0 5.0 0.00 0.00 0.00 54 1013.7
20260510151530 75 250 0.0 4.0 0.00 0.00 0.00 55 1013.8
20260510150039 75 250 0.0 6.0 0.00 0.00 0.00 56 1013.8
20260510144528 75 264 0.0 4.0 0.00 0.00 0.00 56 1014.0
20260510143025 75 235 3.0 10.0 0.00 0.00 0.00 56 1014.3
20260510141531 76 296 4.0 8.0 0.00 0.00 0.00 56 1013.8
20260510140024 76 243 1.0 9.0 0.00 0.00 0.00 57 1013.5
20260510134524 77 279 1.0 8.0 0.00 0.00 0.00 55 1013.5
20260510133024 78 237 2.0 6.0 0.00 0.00 0.00 53 1013.7
20260510131522 78 224 0.0 3.0 0.00 0.00 0.00 54 1013.8
20260510130022 78 164 1.0 7.0 0.00 0.00 0.00 52 1014.3
20260510124521 79 150 1.0 9.0 0.00 0.00 0.00 51 1014.5
20260510123020 81 248 4.0 10.0 0.00 0.00 0.00 48 1014.8
20260510121520 82 241 3.0 8.0 0.00 0.00 0.00 47 1015.0
20260510120019 82 146 2.0 5.0 0.00 0.00 0.00 47 1015.1
20260510114518 81 246 2.0 10.0 0.00 0.00 0.00 48 1015.2
20260510113017 81 233 2.0 10.0 0.00 0.00 0.00 48 1015.1
20260510111517 81 240 1.0 11.0 0.00 0.00 0.00 48 1014.9
20260510110014 81 133 1.0 5.0 0.00 0.00 0.00 48 1015.0
20260510104528 80 238 1.0 5.0 0.00 0.00 0.00 48 1015.1
20260510103013 81 206 0.0 4.0 0.00 0.00 0.00 48 1015.3
20260510101511 80 254 0.0 7.0 0.00 0.00 0.00 50 1015.3
20260510100011 79 244 4.0 10.0 0.00 0.00 0.00 49 1015.6
20260510094519 79 258 2.0 8.0 0.00 0.00 0.00 50 1015.8
20260510093009 80 236 3.0 8.0 0.00 0.00 0.00 50 1015.7
20260510091508 80 202 2.0 8.0 0.00 0.00 0.00 51 1015.7
20260510090004 79 248 3.0 8.0 0.00 0.00 0.00 51 1015.8
20260510084501 79 231 0.0 5.0 0.00 0.00 0.00 54 1015.7
20260510083058 77 266 1.0 9.0 0.00 0.00 0.00 54 1015.8
20260510081528 78 238 4.0 9.0 0.00 0.00 0.00 52 1015.8
20260510080012 77 234 0.0 8.0 0.00 0.00 0.00 53 1015.5
20260510074506 77 247 2.0 5.0 0.00 0.00 0.00 54 1015.3
20260510073003 77 256 2.0 7.0 0.00 0.00 0.00 55 1015.2
20260510071601 76 227 0.0 3.0 0.00 0.00 0.00 58 1015.3
20260510070055 75 259 1.0 4.0 0.00 0.00 0.00 58 1015.2
20260510064553 74 274 2.0 4.0 0.00 0.00 0.00 60 1015.2
20260510063046 73 312 0.0 3.0 0.00 0.00 0.00 62 1015.1
20260510061546 72 283 0.0 3.0 0.00 0.00 0.00 63 1015.1
20260510060037 71 260 1.0 3.0 0.00 0.00 0.00 64 1015.2
20260510054541 70 257 0.0 1.0 0.00 0.00 0.00 66 1015.0
20260510053027 69 257 0.0 2.0 0.00 0.00 0.00 67 1014.9
20260510051625 68 257 0.0 1.0 0.00 0.00 0.00 70 1014.6
20260510050020 67 257 0.0 2.0 0.00 0.00 0.00 72 1014.4
20260510044518 65 257 0.0 0.0 0.00 0.00 0.00 76 1014.6
20260510043020 64 257 0.0 0.0 0.00 0.00 0.00 79 1014.7
20260510041512 62 257 0.0 0.0 0.00 0.00 0.00 82 1014.5
20260510040008 61 257 0.0 0.0 0.00 0.00 0.00 82 1014.2
20260510034504 61 257 0.0 0.0 0.00 0.00 0.00 81 1014.0
20260510033002 61 257 0.0 0.0 0.00 0.00 0.00 81 1014.0
20260510031502 61 257 0.0 0.0 0.00 0.00 0.00 81 1013.9
20260510030100 61 257 0.0 0.0 0.00 0.00 0.00 80 1014.0
20260510024611 61 257 0.0 0.0 0.00 0.00 0.00 79 1013.8
20260510023101 62 257 0.0 0.0 0.00 0.00 0.00 80 1013.6
20260510021556 62 257 0.0 0.0 0.00 0.00 0.00 79 1013.7
20260510020056 62 257 0.0 0.0 0.00 0.00 0.00 79 1013.7
20260510014613 62 257 0.0 0.0 0.00 0.00 0.00 79 1013.7
20260510013103 62 257 0.0 0.0 0.00 0.00 0.00 79 1013.7
20260510011552 63 257 0.0 0.0 0.00 0.00 0.00 79 1013.7
20260510010052 63 257 0.0 0.0 0.00 0.00 0.00 78 1013.5
20260510004550 63 257 0.0 0.0 0.00 0.00 0.00 77 1013.5
20260510003048 63 257 0.0 0.0 0.00 0.00 0.00 77 1013.5
20260510001546 64 257 0.0 0.0 0.00 0.00 0.00 76 1013.5
20260510000044 64 257 0.0 0.0 0.00 0.00 0.00 75 1013.6
20260509234542 64 257 0.0 0.0 0.00 0.00 0.00 75 1013.7
20260509233043 64 257 0.0 0.0 0.00 0.00 0.00 75 1013.8
20260509231544 64 257 0.0 0.0 0.00 0.00 0.00 74 1013.9
20260509230038 65 257 0.0 0.0 0.00 0.00 0.00 74 1013.9
20260509224537 65 257 0.0 0.0 0.00 0.00 0.00 73 1014.0
20260509223043 65 257 0.0 0.0 0.00 0.00 0.00 72 1014.1
20260509221536 65 257 0.0 0.0 0.00 0.00 0.00 72 1014.1
20260509220032 65 257 0.0 0.0 0.00 0.00 0.00 71 1014.2
20260509214531 66 257 0.0 0.0 0.00 0.00 0.00 71 1014.2
20260509213030 66 257 0.0 0.0 0.00 0.00 0.00 71 1014.2
20260509211530 66 257 0.0 1.0 0.00 0.00 0.00 70 1014.1
20260509210031 66 257 0.0 1.0 0.00 0.00 0.00 70 1014.0
20260509204524 66 257 0.0 1.0 0.00 0.00 0.00 70 1013.9
20260509203026 66 257 0.0 1.0 0.00 0.00 0.00 69 1013.9
20260509201526 67 257 0.0 1.0 0.00 0.00 0.00 69 1013.9
20260509200023 67 257 0.0 0.0 0.00 0.00 0.00 68 1013.9
20260509194525 67 257 0.0 0.0 0.00 0.00 0.00 68 1013.7
20260509193022 67 257 0.0 1.0 0.00 0.00 0.00 67 1013.8
20260509191525 67 257 0.0 1.0 0.00 0.00 0.00 67 1013.7
20260509190023 68 257 0.0 1.0 0.00 0.00 0.00 66 1013.7
20260509184532 68 257 0.0 1.0 0.00 0.00 0.00 66 1013.7
20260509183020 68 257 0.0 2.0 0.00 0.00 0.00 65 1013.5
20260509181520 68 266 2.0 9.0 0.00 0.00 0.00 64 1013.4
20260509180023 69 265 1.0 6.0 0.00 0.00 0.00 62 1013.1
20260509174519 69 269 0.0 6.0 0.00 0.00 0.00 60 1012.9
20260509173049 70 263 1.0 6.0 0.00 0.00 0.00 58 1012.8
20260509171526 71 240 0.0 7.0 0.00 0.00 0.00 56 1012.7
20260509170018 71 234 1.0 9.0 0.00 0.00 0.00 54 1012.7
20260509164518 72 272 2.0 9.0 0.00 0.00 0.00 52 1012.6